AirNav   Phillips 66 Aviation Fuel
 
 1609 users online  

CA84 Torrey Pines Gliderport
San Diego, California, USA

GOING TO SAN DIEGO?


FAA INFORMATION EFFECTIVE 21 JUNE 2018

Location

FAA Identifier: CA84
Lat/Long: 32-53-23.0000N / 117-14-49.0000W
32-53.383333N / 117-14.816667W
32.8897222 / -117.2469444
(estimated)
Elevation: 372 ft. / 113 m (estimated)
Variation: 13E (1985)
From city: 11 miles NW of SAN DIEGO, CA
Time zone: UTC -7 (UTC -8 during Standard Time)
Zip code: 92037

Gliderport Operations

Gliderport use: Private use. Permission required prior to landing
Activation date: 11/1961
Control tower: no
ARTCC: LOS ANGELES CENTER
FSS: SAN DIEGO FLIGHT SERVICE STATION
Attendance: UNATNDD
Wind indicator: no
Segmented circle: no

Gliderport Communications

WX ASOS at MYF (7 nm SE): PHONE 858-576-4337
WX ASOS at SAN (10 nm S): PHONE 619-296-8934
WX AWOS-3P at SEE (14 nm E): 125.45 (619-449-1228)
WX ASOS at CRQ (14 nm N): PHONE 760-930-0864
WX ASOS at RNM (19 nm NE): 132.025 (760-789-0736)

Nearby radio navigation aids

VOR radial/distance  VOR name  Freq  Var
MZBr335/6.5MISSION BAY VORTAC117.8015E
PGYr307/21.5POGGI VORTAC109.8014E
OCNr143/22.7OCEANSIDE VORTAC115.3015E
TIJr311/25.7TIJUANA VOR/DME116.5014E
JLIr231/36.5JULIAN VORTAC114.0015E

Gliderport Services

Airframe service: NONE
Powerplant service: NONE

Runway Information

Runway 9/27

Dimensions: 1500 x 30 ft. / 457 x 9 m
Surface: asphalt
RUNWAY 9  RUNWAY 27
Traffic pattern: leftleft
Obstructions: nonetrees, 100 ft. from runway

Gliderport Ownership and Management from official FAA records

Ownership: Publicly-owned
Owner: CITY OF SAN DIEGO
Manager: JIM FROST
4740 HARBINSON AVE
LA MESA, CA 91941
Phone 619-461-9614
WORK PHONE 619-535-9505 EXT 1585

Additional Remarks

GLIDER PORT IS LEASED FM CITY TO THE ASSOCD GLIDER CLUB OF SOUTHERN CALIF FOR STUDENT TRAINING & RIDGE SOARING.
ALL ACFT ARE TRAILERED GLIDERS.
ROLLING RWY .6 PERCENT GRADIENT.
EXTENSIVE HANG GLIDER OPERATIONS ON WEEKENDS AND WEEKDAYS.

Instrument Procedures

There are no published instrument procedures at CA84.

Some nearby airports with instrument procedures:

KNKX - Miramar MCAS (Joe Foss Field) Airport (5 nm E)
KMYF - Montgomery-Gibbs Executive Airport (7 nm SE)
KSAN - San Diego International Airport (10 nm S)
KNZY - North Island Naval Air Station (Halsey Field) (12 nm S)
KSEE - Gillespie Field Airport (14 nm E)
KCRQ - Mc Clellan-Palomar Airport (14 nm N)
KRNM - Ramona Airport (19 nm NE)
 
Loc | Ops | Rwys | IFR | FBO | Links
Com | Nav | Svcs | Stats | Notes


 
Area around CA84 (Torrey Pines Gliderport)
 
Road maps at: MapQuest Bing Google
 
Aerial photo
WARNING: Photo may not be current or correct
Aerial photo of CA84 (Torrey Pines Gliderport)
Photo by Doug Fronius
Photo taken 13-Mar-2004
from a 1942 Schweizer TG-2 sailplane.

Do you have a better or more recent aerial photo of Torrey Pines Gliderport that you would like to share? If so, please send us your photo.

 
Sectional chart

 
Airport distance calculator
Flying to Torrey Pines Gliderport? Find the distance to fly.

From to CA84

Sunrise and sunset
Times for 18-Jul-2018
 Local
(UTC-7)
 Zulu
(UTC)
Morning civil twilight05:2712:27
Sunrise05:5412:54
Sunset19:5602:56
Evening civil twilight20:2403:24

Current date and time
Zulu (UTC)  18-Jul-2018 18:03:48
Local (UTC-7)  18-Jul-2018 11:03:48
 
METAR
KNKX 
6nm E 
181655Z 04004KT 10SM FEW010 SCT100 BKN150 27/17 A3002 RMK AO2 SLP159 T02720172
KMYF 
7nm SE 
181753Z 21007KT 190V260 10SM CLR 25/17 A3002 RMK AO2 SLP160 T02500172 10261 20189 56013
KSAN 
10nm S 
181751Z 22007KT 10SM FEW011 SCT085 SCT140 BKN200 BKN250 23/17 A3003 RMK AO2 SLP170 T02280172 10228 20200 58007
KNZY 
11nm S 
181652Z 20006KT 10SM FEW011 SCT150 BKN220 21/17 A3002 RMK SLP165 T02060172
KCRQ 
15nm N 
181753Z 26009KT 10SM CLR 22/18 A3001 RMK AO2 SLP159 T02170183 10222 20189 58006
KSEE 
15nm E 
181747Z 00000KT 10SM SKC 25/17 A3000
KRNM 
19nm NE 
181753Z 29008KT 10SM CLR 29/17 A3004 RMK AO2 SLP154 T02890172 10289 20183 50000
TAF
KNKX 
6nm E 
1815/1915 VRB05KT 9999 OVC013 QNH3000INS BECMG 1816/1818 28008KT 9999 SCT012 QNH2995INS BECMG 1823/1901 VRB05KT 9999 OVC015 QNH2994INS T29/1822Z T22/1912Z
KSAN 
10nm S 
181732Z 1818/1924 17006KT P6SM SCT015 BKN150 FM181900 23010KT P6SM BKN150 FM190100 VRB04KT P6SM SCT200 FM190800 VRB04KT P6SM BKN012 FM191500 VRB04KT P6SM SCT012 FM191900 28010KT P6SM SCT200
KNZY 
11nm S 
1815/1915 VRB06KT 9999 BKN011 OVC170 QNH2997INS TEMPO 1816/1818 22009KT SCT011 BKN170 BKN220 BECMG 1818/1820 26010KT 9999 FEW013 BKN150 BKN220 QNH2992INS TEMPO 1822/1904 VRB15G25KT 9000 VCTS BKN070CB BKN160 FM190400 VRB06KT 9999 BKN012 OVC150 QNH2991INS T25/1822Z T18/1912Z FS30103
KCRQ 
15nm N 
181732Z 1818/1918 VRB04KT P6SM SCT012 SCT200 FM182000 26008KT P6SM SCT200 FM190000 VRB04KT P6SM SCT200 FM190800 VRB04KT P6SM BKN010
NOTAMs
Click for the latest NOTAMs
NOTAMs are issued by the DoD/FAA and will open in a separate window not controlled by AirNav.

 

 
 

Would you like to see your business listed on this page?

 If your business provides an interesting product or service to pilots, flight crews, aircraft, or users of the Torrey Pines Gliderport, you should consider listing it here.  To start the listing process, click on the button below
 
Add a business
 

Other Pages about Torrey Pines Gliderport

www.agcsc.org/torrey_pines_info.html
 
Update a link
 
Copyright © AirNav, LLC. All rights reserved. Privacy Policy  Contact